Overview Statistics Trail Chart Weather Telemetry Raw packets
 

This is the latest recevied weather packets stored in our database for station/object KF7SOJ. If no packets are shown the sender has not sent any weather packets the latest 10 day(s).

<< 21 22 23 24 25 26 27 >>
Time Temp. Humidity Pressure Rain* Wind** Luminosity Snow
1788470293 29.44° C 19% 925.9 hPa 0 mm - 741 W/m² -
1788469989 28.89° C 19% 925.7 hPa 0 mm - 747 W/m² -
1788469685 28.89° C 19% 925.8 hPa 0 mm - 753 W/m² -
1788469380 28.89° C 19% 925.9 hPa 0 mm - 757 W/m² -
1788469079 29.44° C 18% 925.8 hPa 0 mm - 769 W/m² -
1788468779 28.89° C 19% 925.9 hPa 0 mm - 776 W/m² -
1788468480 29.44° C 19% 925.9 hPa 0 mm - 788 W/m² -
1788468176 28.89° C 20% 925.9 hPa 0 mm - 766 W/m² -
1788467871 28.89° C 20% 926 hPa 0 mm - 793 W/m² -
1788467567 28.89° C 19% 926 hPa 0 mm - 808 W/m² -
1788467265 28.33° C 20% 925.9 hPa 0 mm - 724 W/m² -
1788466962 28.33° C 20% 926.2 hPa 0 mm - 816 W/m² -
1788466661 27.78° C 19% 926.3 hPa 0 mm - 811 W/m² -
1788466357 28.33° C 19% 926.1 hPa 0 mm - 815 W/m² -
1788466055 27.78° C 20% 926.3 hPa 0 mm - 822 W/m² -
1788465751 28.33° C 20% 926.3 hPa 0 mm - 865 W/m² -
1788465446 28.33° C 19% 926.5 hPa 0 mm - 889 W/m² -
1788465143 28.33° C 19% 926.4 hPa 0 mm - 851 W/m² -
1788464842 28.33° C 19% 926.3 hPa 0 mm - 841 W/m² -
1788464538 27.78° C 19% 926.4 hPa 0 mm - 838 W/m² -
1788464233 27.78° C 20% 926.5 hPa 0 mm - 839 W/m² -
1788463928 27.78° C 19% 926.5 hPa 0 mm - 842 W/m² -
1788463624 27.78° C 20% 926.4 hPa 0 mm - 843 W/m² -
1788463320 27.78° C 20% 926.6 hPa 0 mm - 843 W/m² -
1788463016 27.78° C 20% 926.5 hPa 0 mm - 843 W/m² -

* Rain latest hour (hover to see other rain measurements)
** Current wind speed in m/s (hover to see current wind gust speed)